Home   Weather   Cedar Rapids   Past weeks

Flag for USA Past Weather in Cedar Rapids, Iowa, USA — Yesterday and Last 2 Weeks

Now
74 °F

Clear.


Feels Like: 70 °F
Forecast: 74 / 91 °F
Wind: 7 mph from East

Location: Cedar Rapids Municipal Airport

Current Time: Jul 21, 2017 at 9:53:58 pm

Latest Report: Jul 21, 2017 at 9:00 pm


Visibility: 10 mi

Pressure: 29.77 "Hg

Humidity: 97%

Dew Point: 73 °F

Location of Cedar RapidsLocation

Past Weather in Cedar Rapids — Graph

°F

Cedar Rapids Temperature Yesterday

Maximum temperature yesterday: 92 °F (at 4:52 pm)
Minimum temperature yesterday: 73 °F (at 11:44 pm)
Average temperature yesterday: 81 °F

High & Low Weather Summary for the Past Weeks

 TemperatureHumidityPressure
High92 °F (Jul 20, 4:52 pm)100% (Jul 7, 4:52 am)30.18 "Hg (Jul 7, 4:52 am)
Low53 °F (Jul 15, 6:02 am)37% (Jul 9, 2:52 pm)29.72 "Hg (Jul 10, 5:52 am)
Average75 °F85%29.96 "Hg
* Reported Jul 6 7:52 pm — Jul 21 7:52 pm, Cedar Rapids. Weather by CustomWeather, © 2017

Note: Actual official high and low records may vary slightly from our data, if they occured in-between our weather recording intervals... More about our weather records

Advertising

Cedar Rapids Weather History for the Previous 24 Hours

Scroll right to see more
 ConditionsComfort  
Time TempWeatherWind HumidityBarometerVisibility
7:52 pm
Fri, Jul 21
75 °FThundershowers. Cloudy.7 mph90%29.74 "Hg10 mi
6:52 pm74 °FThundershowers. Sunny.9 mph97%29.78 "Hg10 mi
5:52 pm73 °FThundershowers. Scattered clouds.12 mph100%29.78 "Hg10 mi
5:38 pm76 °FThundershowers. Partly sunny.18 mph97%29.84 "Hg10 mi
5:07 pm77 °FThunderstorms. Mostly cloudy.15 mph96%29.86 "Hg10 mi
4:52 pm78 °FThunderstorms. Fog.20 mph93%29.83 "Hg2 mi
4:32 pm85 °FThunderstorms. Sunny.9 mph88%29.81 "Hg10 mi
3:52 pm87 °FSunny.10 mph85%29.81 "Hg10 mi
2:52 pm84 °FSunny.14 mph83%29.83 "Hg10 mi
1:52 pm82 °FPassing clouds.16 mph79%29.88 "Hg10 mi
1:40 pm81 °FBroken clouds.18 mph82%29.91 "Hg10 mi
12:52 pm84 °FPartly sunny.9 mph83%29.90 "Hg10 mi
12:34 pm85 °FPartly sunny.8 mph80%29.92 "Hg10 mi
11:52 am84 °FSunny.9 mph83%29.90 "Hg10 mi
10:52 am80 °FScattered clouds.5 mph85%29.93 "Hg10 mi
9:52 am79 °FSunny.13 mph88%29.92 "Hg10 mi
8:52 am74 °FSunny.9 mph100%29.94 "Hg10 mi
7:52 am73 °FPartly sunny.7 mph100%29.94 "Hg10 mi
6:52 am72 °FMore clouds than sun.6 mph100%29.93 "Hg10 mi
5:52 am71 °FScattered clouds.7 mph100%29.91 "Hg10 mi
5:08 am71 °FPassing clouds.5 mph100%29.94 "Hg9 mi
4:52 am71 °FThundershowers. Passing clouds.No wind100%29.92 "Hg10 mi
3:52 am71 °FClear.No wind100%29.90 "Hg10 mi
2:52 am71 °FPassing clouds.5 mph100%29.91 "Hg10 mi
2:14 am71 °FLight rain. Mostly cloudy.9 mph100%29.97 "Hg7 mi
1:59 am71 °FThunderstorms. Fog.8 mph100%29.97 "Hg6 mi
1:15 am72 °FLight rain. Passing clouds.9 mph100%29.99 "Hg10 mi
1:05 am72 °FThundershowers. Partly cloudy.10 mphN/A29.99 "Hg9 mi
12:32 am70 °FStrong thunderstorms. Fog.14 mph100%30.03 "Hg2 mi
12:23 am70 °FStrong thunderstorms. Fog.26 mph100%30.04 "Hg1 mi
11:44 pm
Thu, Jul 20
73 °FThundershowers. Fog.16 mph100%29.98 "Hg3 mi
10:52 pm75 °FStrong thunderstorms. Fog.15 mph90%29.95 "Hg3 mi
10:32 pm80 °FThundershowers. Mostly cloudy.12 mph81%29.96 "Hg9 mi
9:52 pm81 °FOvercast.8 mph97%29.93 "Hg9 mi
Weather by CustomWeather, © 2017

See weather overviewHow to use our weather pages